Meteo Giornale » Osservazioni meteo Italia » Treviso-S Angelo

ore: 20:50 - Osservazioni Meteo Treviso-S Angelo
Lat. 45° 39' N Lon. 12° 11' E Alt. 18 metri s.l.m.

sereno Europe/Rome

20 °C

Sereno

Temp. 24 Ore

17 °C

24 °C

Nord

5.5 Km/h

Dew point 13 °C

Umidità 64 %

Visibilità  10 Km

Il sole sorge alle ore 05:28

Il sole tramonta alle ore 20:48

Data e Ora Cielo e Fenomeni T °C DP °C Um. % Pres. hPa Vis. km Vento km/h
Oggi h: 20:50 sereno Sereno 20 13 64 1014 10 N 5.5
Oggi h: 20:20 sereno Sereno 21 14 64 1014 10 N 5.5
Oggi h: 19:50 sereno Sereno 21 13 60 1014 10 N 3.7
Oggi h: 19:20 sereno Sereno 21 15 68 1013 10 N 5.5
Oggi h: 18:20 sereno Sereno 22 14 60 1013 10 N 5.5
Oggi h: 17:50 sereno Sereno 22 13 56 1013 10 S/SE 9.3
Oggi h: 17:20 sereno Sereno 22 14 60 1013 10 S/SE 11.1
Oggi h: 16:50 sereno Sereno 23 14 56 1013 10 SE 11.1
Oggi h: 16:20 sereno Sereno 23 15 60 1013 10 SE 13
Oggi h: 15:50 sereno Sereno 23 16 64 1013 10 S/SE 13
Oggi h: 15:20 sereno Sereno 24 14 53 1013 10 N 5.5
Oggi h: 14:50 poco_nuvoloso Poco Nuvoloso 24 13 50 1013 10 N/NO 11.1
Oggi h: 14:20 nuvoloso Nuvoloso 23 14 56 1014 10 E/NE 7.4
Oggi h: 13:50 nuvoloso Nuvoloso 23 15 60 1014 10 N/NE 7.4
Oggi h: 13:20 nuvoloso Nuvoloso 23 16 64 1014 10 NE 9.3
Oggi h: 12:50 nuvoloso Nuvoloso 23 16 64 1014 10 N/NE 9.3
Oggi h: 12:20 nuvoloso Nuvoloso 23 16 64 1015 10 N 5.5
Oggi h: 11:50 nuvoloso Nuvoloso 23 16 64 1015 10 N 7.4
Oggi h: 11:20 nuvoloso Nuvoloso 22 16 68 1014 10 N 7.4
Oggi h: 10:50 poco_nuvoloso Poco Nuvoloso 22 15 64 1014 10 N 5.5
Oggi h: 10:20 poco_nuvoloso Poco Nuvoloso 22 17 73 1014 10 N 5.5
Oggi h: 09:50 poco_nuvoloso Poco Nuvoloso 20 16 77 1014 10 E/NE 7.4
Oggi h: 09:20 poco_nuvoloso Poco Nuvoloso 20 17 82 1014 10 N 5.5
Oggi h: 08:50 sereno Sereno 20 17 82 1014 7 NE 7.4
Oggi h: 08:20 sereno Sereno 19 17 88 1014 8 N/NE 7.4
Oggi h: 07:50 poco_nuvoloso Poco Nuvoloso 18 16 88 1013 8 N/NE 7.4
Oggi h: 07:20 sereno Sereno 18 16 88 1013 8 N 5.5
Oggi h: 06:50 poco_nuvoloso Poco Nuvoloso 17 16 93 1013 10 N 5.5
Oggi h: 06:20 poco_nuvoloso Poco Nuvoloso 17 16 93 1013 10 N 5.5
Oggi h: 05:50 nuvoloso Nuvoloso 17 16 93 1013 9 N 5.5
Oggi h: 05:20 molto_nuvoloso Molto Nuvoloso 17 16 93 1013 7 N 3.7
Oggi h: 04:50 molto_nuvoloso Molto Nuvoloso 17 16 93 1012 8 N/NE 7.4
Oggi h: 04:20 nuvoloso Nuvoloso 17 16 93 1012 9 N 5.5
Oggi h: 03:50 molto_nuvoloso Molto Nuvoloso 17 16 93 1013 9 N 5.5
Oggi h: 03:20 molto_nuvoloso Molto Nuvoloso 17 16 93 1013 10 N 3.7
Oggi h: 02:50 molto_nuvoloso Molto Nuvoloso 18 16 88 1013 10 N 5.5
Oggi h: 02:20 coperto Coperto 18 16 88 1013 10 N 3.7
Oggi h: 01:50 molto_nuvoloso Molto Nuvoloso 18 16 88 1013 10 N 5.5
Oggi h: 01:20 molto_nuvoloso Molto Nuvoloso 18 16 88 1013 10 N 3.7
Oggi h: 00:50 molto_nuvoloso Molto Nuvoloso 18 16 88 1013 10 E/NE 7.4
Oggi h: 00:20 molto_nuvoloso Molto Nuvoloso 19 16 82 1013 10 N/NE 7.4
Ieri h: 23:50 poco_nuvoloso Poco Nuvoloso 18 16 88 1012 10 N 5.5
Ieri h: 23:20 sereno Sereno 18 16 88 1012 10 N 5.5
Ieri h: 22:20 sereno Sereno 19 16 82 1012 10 N 5.5
Ieri h: 21:50 sereno Sereno 20 16 77 1012 10 N 5.5